NOAA 16 DEB, 41221

Orbit data source: Space-Track

NOAA 16 DEB, 41221 is space debris in SSO originally from a launch on Thu, 21 Sep 2000 UTC launched from the Air Force Western Test Range (AFWTR). Debris objects in space refer to the collection of defunct objects orbiting the Earth. Examples of debris include non-operational satellites, rocket bodies, and fragments generated from explosions, collisions, or faulty payload assembly.

Loading next visibility...
Identifier
41221, 2000-055EA
Orbit
SSO
Country
Flag of USUS
Related business
Manufacturer
Unknown
Mission
Spacecraft
Bus & Motor
Unknown
Mass
Unknown
Launch date (UTC)
2000-09-21 (26 years ago)
Launch vehicle
Unknown
Launch site
Air Force Western Test Range (AFWTR)
Object type
Payload
Rocket body
Debris
Shape & HBR
Unknown shape, 0.1 m
Radar Cross Section
Small (<0.1 m²)

Expand to show TLE details & history
Last TLE update: 13 hours ago

TLE from 13 hours ago
0 NOAA 16 DEB
1 41221U 00055EA  26254.17965234  .00003100  00000-0  74315-3 0  9993
2 41221  98.9738 144.7002 0038918 160.5469 199.7221 14.53818332561847
Epoch: 2026-09-11T04:18Z
TLE epoch observation values (Epoch: 2026-09-11T04:18:41.962Z)
Latitude
0.00002°
Longitude
89.81864°
Altitude
742.153 km
Speed
7.47 km/s
True Right ascension
09h 38m 48s
True Declination
0° 00' 00"
Sunlit
Object was in daylight at epoch
Visualization orbit readout
Latitude
Unknown
Longitude
Unknown
Altitude
Unknown
Speed
Unknown
Apparent Right ascension
Unknown
Apparent Declination
Unknown
Sunlit
N/A
Visualization observer readout
Local Sidereal Time
09:53:34
Azimuth
Unknown
Elevation
Unknown
Doppler factor
Unknown
Orbital elements
Apogee altitude
737.918 km
Perigee altitude
682.744 km
Semi-major axis
7,088.468 km
Eccentricity
0.00389
Inclination
98.9738°
RAAN
144.7002°
Arg. of periapsis
160.5469°
True anomaly
199.57229°
Mean anomaly
199.7221°
Eccentric anomaly
199.64713°
Mean motion
3.63676 °/min
Orbital period
98.99 mins
BSTAR
0.00074315
Loading maneuver chart data...
Computing Atmospheric mass density...
Loading historical data...
Loading historical data...
Loading historical data...
Loading historical data...
Loading historical data...
Loading historical data...
Loading historical data...

Documentation

Showing up to 5 results
|